Ahoskie, NC

3:02 AM EDT on May 01, 2017 (GMT -0400)
Tri County

Weather History for KASJ - October, 2011

Change the Weather History Date:

Tuesday, October 4, 2011

  Actual Average (KEMV) Record (KEMV)
Temperature  
Mean Temperature 56 °F -  
Max Temperature 69 °F 76 °F 90 °F (1986)
Min Temperature 44 °F 48 °F 35 °F (1987)
Degree Days  
Heating Degree Days 8    
Growing Degree Days 6 (Base 50)    
Moisture  
Dew Point 46 °F    
Average Humidity 74    
Maximum Humidity 93    
Minimum Humidity 43    
Precipitation  
Precipitation 0.00 in - - ()
Sea Level Pressure  
Sea Level Pressure 30.16 in    
Wind  
Wind Speed 1 mph (NNW)    
Max Wind Speed 8 mph    
Max Gust Speed -    
Visibility 10 miles    
Events      
Averages and records for this station are not official NWS values.
T = Trace of Precipitation, MM = Missing Value Source: NWS Daily Summary

Daily Weather History Graph

Daily Weather History Graph

Search for Another Location

Airport or City:

Trip Planner

Search our weather history database for the weather conditions in past years. The results will help you decide how hot, cold, wet, or windy it might be!

Date:

Astronomy

Oct. 04, 2011 Rise Set
Actual Time 7:06 AM EDT 6:48 PM EDT
Civil Twilight 6:40 AM EDT 7:13 PM EDT
Nautical Twilight 6:10 AM EDT 7:43 PM EDT
Astronomical Twilight 5:40 AM EDT 8:13 PM EDT
Moon 2:37 PM EDT (10/4) No Moon Set
Length of Visible Light 12h 33m
Length of Day
11h 42m
First Quarter, 56% of the Moon is Illuminated
Oct 4
First Quarter
Oct 11
Full
Oct 19
Last Quarter
Oct 26
New
Nov 2
First Quarter

Hourly Weather History & Observations

Time (EDT) Temp. Dew Point Humidity Pressure Visibility Wind Dir Wind Speed Gust Speed Precip Events Conditions
12:35 AM 50.0 °F 46.4 °F 87% 30.15 in 10.0 mi Calm Calm - N/A   Clear
12:55 AM 46.4 °F 44.6 °F 93% 30.15 in 10.0 mi Calm Calm - N/A   Clear
1:15 AM 46.4 °F 44.6 °F 93% 30.14 in 10.0 mi Calm Calm - N/A   Clear
1:35 AM 44.6 °F 42.8 °F 93% 30.14 in 10.0 mi Calm Calm - N/A   Clear
1:55 AM 44.6 °F 42.8 °F 93% 30.13 in 10.0 mi Calm Calm - N/A   Clear
2:15 AM 44.6 °F 42.8 °F 93% 30.12 in 10.0 mi Calm Calm - N/A   Clear
2:35 AM 44.6 °F 42.8 °F 93% 30.12 in 4.0 mi Calm Calm - N/A   Clear
2:55 AM 44.6 °F 42.8 °F 93% 30.12 in 10.0 mi Calm Calm - N/A   Clear
3:15 AM 44.6 °F 42.8 °F 93% 30.12 in 10.0 mi Calm Calm - N/A   Clear
3:35 AM 44.6 °F 42.8 °F 93% 30.11 in 10.0 mi Calm Calm - N/A   Clear
3:55 AM 44.6 °F 42.8 °F 93% 30.12 in 10.0 mi Calm Calm - N/A   Clear
4:15 AM 44.6 °F 42.8 °F 93% 30.12 in 10.0 mi Calm Calm - N/A   Clear
4:35 AM 44.6 °F 42.8 °F 93% 30.13 in 10.0 mi Calm Calm - N/A   Clear
4:55 AM 44.6 °F 42.8 °F 93% 30.13 in 10.0 mi Calm Calm - N/A   Clear
5:15 AM 44.6 °F 42.8 °F 93% 30.14 in 10.0 mi Calm Calm - N/A   Clear
5:35 AM 44.6 °F 42.8 °F 93% 30.14 in 10.0 mi Calm Calm - N/A   Clear
5:55 AM 44.6 °F 42.8 °F 93% 30.14 in 10.0 mi Calm Calm - N/A   Clear
6:15 AM 44.6 °F 42.8 °F 93% 30.15 in 10.0 mi Calm Calm - N/A   Clear
6:35 AM 44.6 °F 42.8 °F 93% 30.16 in 10.0 mi Calm Calm - N/A   Clear
6:55 AM 44.6 °F 42.8 °F 93% 30.16 in 10.0 mi Calm Calm - N/A   Clear
7:15 AM 44.6 °F 42.8 °F 93% 30.17 in 7.0 mi Calm Calm - N/A   Clear
7:55 AM 44.6 °F 42.8 °F 93% 30.17 in 10.0 mi Calm Calm - N/A   Clear
8:15 AM 46.4 °F 42.8 °F 87% 30.17 in 10.0 mi Calm Calm - N/A   Clear
8:35 AM 50.0 °F 46.4 °F 87% 30.17 in 10.0 mi Calm Calm - N/A   Clear
8:55 AM 50.0 °F 44.6 °F 82% 30.18 in 10.0 mi Calm Calm - N/A   Clear
9:15 AM 51.8 °F 46.4 °F 82% 30.18 in 10.0 mi Calm Calm - N/A   Clear
9:35 AM 53.6 °F 46.4 °F 77% 30.19 in 10.0 mi WNW 3.5 mph - N/A   Clear
9:55 AM 55.4 °F 46.4 °F 72% 30.20 in 10.0 mi Calm Calm - N/A   Clear
10:15 AM 57.2 °F 46.4 °F 67% 30.20 in 10.0 mi NNW 5.8 mph - N/A   Clear
10:35 AM 60.8 °F 46.4 °F 59% 30.20 in 10.0 mi NNW 4.6 mph - N/A   Clear
10:55 AM 62.6 °F 46.4 °F 55% 30.20 in 10.0 mi NNW 4.6 mph - N/A   Clear
11:15 AM 64.4 °F 46.4 °F 52% 30.20 in 10.0 mi NNW 5.8 mph - N/A   Clear
11:55 AM 64.4 °F 46.4 °F 52% 30.19 in 10.0 mi NNW 6.9 mph - N/A   Clear
12:35 PM 64.4 °F 46.4 °F 52% 30.18 in 10.0 mi NNW 6.9 mph - N/A   Scattered Clouds
12:55 PM 64.4 °F 44.6 °F 49% 30.18 in 10.0 mi NW 4.6 mph - N/A   Scattered Clouds
1:15 PM 64.4 °F 44.6 °F 49% 30.17 in 10.0 mi NNW 5.8 mph - N/A   Scattered Clouds
1:35 PM 64.4 °F 46.4 °F 52% 30.17 in 10.0 mi NNW 8.1 mph - N/A   Scattered Clouds
1:55 PM 69.8 °F 46.4 °F 43% 30.17 in 10.0 mi NW 6.9 mph - N/A   Scattered Clouds
2:15 PM 69.8 °F 46.4 °F 43% 30.16 in 10.0 mi NW 5.8 mph - N/A   Scattered Clouds
2:35 PM 69.8 °F 46.4 °F 43% 30.15 in 10.0 mi NW 5.8 mph - N/A   Scattered Clouds
2:55 PM 69.8 °F 46.4 °F 43% 30.15 in 10.0 mi NNW 4.6 mph - N/A   Scattered Clouds
3:15 PM 68.0 °F 46.4 °F 46% 30.15 in 10.0 mi North 4.6 mph - N/A   Scattered Clouds
3:35 PM 68.0 °F 46.4 °F 46% 30.15 in 10.0 mi NNW 4.6 mph - N/A   Mostly Cloudy
3:55 PM 68.0 °F 46.4 °F 46% 30.14 in 10.0 mi NNW 4.6 mph - N/A   Mostly Cloudy
4:15 PM 69.8 °F 48.2 °F 46% 30.14 in 10.0 mi North 6.9 mph - N/A   Mostly Cloudy
4:35 PM 69.8 °F 48.2 °F 46% 30.14 in 10.0 mi NNW 3.5 mph - N/A   Mostly Cloudy
4:55 PM 68.0 °F 46.4 °F 46% 30.15 in 10.0 mi NNW 4.6 mph - N/A   Mostly Cloudy
5:15 PM 64.4 °F 46.4 °F 52% 30.15 in 10.0 mi NNW 4.6 mph - N/A   Mostly Cloudy
5:55 PM 64.4 °F 50.0 °F 59% 30.15 in 10.0 mi Calm Calm - N/A   Scattered Clouds
6:15 PM 64.4 °F 51.8 °F 64% 30.16 in 10.0 mi Calm Calm - N/A   Mostly Cloudy
6:35 PM 62.6 °F 51.8 °F 68% 30.17 in 10.0 mi Calm Calm - N/A   Scattered Clouds
6:55 PM 59.0 °F 51.8 °F 77% 30.17 in 10.0 mi Calm Calm - N/A   Clear
7:15 PM 57.2 °F 51.8 °F 82% 30.17 in 10.0 mi Calm Calm - N/A   Clear
7:35 PM 55.4 °F 51.8 °F 88% 30.18 in 10.0 mi Calm Calm - N/A   Scattered Clouds
7:55 PM 55.4 °F 51.8 °F 88% 30.18 in 10.0 mi Calm Calm - N/A   Unknown
8:15 PM 55.4 °F 51.8 °F 88% 30.18 in 10.0 mi Calm Calm - N/A   Unknown
8:35 PM 53.6 °F 50.0 °F 88% 30.18 in 10.0 mi Calm Calm - N/A   Unknown
8:55 PM 53.6 °F 50.0 °F 88% 30.19 in 10.0 mi Calm Calm - N/A   Unknown
9:15 PM 53.6 °F 50.0 °F 88% 30.19 in 10.0 mi Calm Calm - N/A   Unknown
9:35 PM 53.6 °F 50.0 °F 88% 30.19 in 10.0 mi Calm Calm - N/A   Unknown
9:55 PM 53.6 °F 50.0 °F 88% 30.19 in 10.0 mi Calm Calm - N/A   Unknown
10:15 PM 53.6 °F 50.0 °F 88% 30.19 in 10.0 mi Calm Calm - N/A   Unknown
10:35 PM 51.8 °F 50.0 °F 94% 30.19 in 7.0 mi Calm Calm - N/A   Unknown
10:55 PM 51.8 °F 48.2 °F 88% 30.20 in 10.0 mi Calm Calm - N/A   Unknown
11:15 PM 51.8 °F 50.0 °F 94% 30.20 in 10.0 mi Calm Calm - N/A   Unknown
11:35 PM 51.8 °F 50.0 °F 94% 30.20 in 10.0 mi Calm Calm - N/A   Unknown
11:55 PM 51.8 °F 50.0 °F 94% 30.20 in 10.0 mi Calm Calm - N/A   Unknown